| time (UTC) | temp F | wind direction | speed MPH | gust MPH | rain 1hr in | rain 24hr in | rain mn in | humidity % | barometer mb |
| 20260503040820 | 44 | 68 | 1.0 | 2.0 | 0.00 | 0.00 | 0.00 | 87 | 1023.6 |
| 20260503040311 | 44 | 68 | 0.0 | 2.0 | 0.00 | 0.00 | 0.00 | 87 | 1023.8 |
| 20260503035800 | 43 | 90 | 1.0 | 2.0 | 0.00 | 0.00 | 0.00 | 86 | 1023.8 |
| 20260503035250 | 43 | 113 | 1.0 | 2.0 | 0.00 | 0.00 | 0.00 | 86 | 1024.1 |
| 20260503034740 | 44 | 68 | 1.0 | 2.0 | 0.00 | 0.00 | 0.00 | 86 | 1024.0 |
| 20260503034230 | 44 | 45 | 1.0 | 2.0 | 0.00 | 0.00 | 0.00 | 86 | 1023.9 |
| 20260503033720 | 44 | 113 | 1.0 | 2.0 | 0.00 | 0.00 | 0.00 | 86 | 1024.0 |
| 20260503032149 | 43 | 68 | 1.0 | 2.0 | 0.00 | 0.00 | 0.00 | 85 | 1024.0 |
| 20260503031129 | 43 | 0 | 0.0 | 2.0 | 0.00 | 0.00 | 0.00 | 84 | 1023.9 |
| 20260503030619 | 43 | 45 | 1.0 | 2.0 | 0.00 | 0.00 | 0.00 | 84 | 1024.1 |
| 20260503030109 | 43 | 45 | 1.0 | 2.0 | 0.00 | 0.00 | 0.00 | 84 | 1024.0 |
| 20260503025559 | 43 | 45 | 1.0 | 2.0 | 0.00 | 0.00 | 0.00 | 83 | 1024.1 |
| 20260503025049 | 43 | 45 | 2.0 | 2.0 | 0.00 | 0.00 | 0.00 | 83 | 1024.3 |
| 20260503024028 | 43 | 90 | 1.0 | 2.0 | 0.00 | 0.00 | 0.00 | 82 | 1024.2 |
| 20260503023517 | 44 | 338 | 0.0 | 2.0 | 0.00 | 0.00 | 0.00 | 81 | 1024.1 |
| 20260503022457 | 44 | 68 | 1.0 | 4.0 | 0.00 | 0.00 | 0.00 | 80 | 1024.2 |
| 20260503021947 | 44 | 45 | 1.0 | 4.0 | 0.00 | 0.00 | 0.00 | 80 | 1024.4 |
| 20260503021437 | 44 | 68 | 1.0 | 2.0 | 0.00 | 0.00 | 0.00 | 80 | 1024.3 |
| 20260503020927 | 44 | 68 | 1.0 | 2.0 | 0.00 | 0.00 | 0.00 | 80 | 1024.1 |
| 20260503020417 | 44 | 68 | 1.0 | 2.0 | 0.00 | 0.00 | 0.00 | 80 | 1024.1 |
| 20260503015906 | 44 | 23 | 1.0 | 4.0 | 0.00 | 0.00 | 0.00 | 80 | 1023.9 |
| 20260503015357 | 44 | 68 | 1.0 | 4.0 | 0.00 | 0.00 | 0.00 | 80 | 1024.2 |
| 20260503014846 | 44 | 45 | 1.0 | 4.0 | 0.00 | 0.00 | 0.00 | 80 | 1024.1 |
| 20260503014342 | 44 | 68 | 2.0 | 4.0 | 0.00 | 0.00 | 0.00 | 80 | 1024.2 |
| 20260503012810 | 45 | 45 | 2.0 | 4.0 | 0.00 | 0.00 | 0.00 | 80 | 1024.2 |
| 20260503012300 | 45 | 0 | 2.0 | 4.0 | 0.00 | 0.00 | 0.00 | 80 | 1024.0 |
| 20260503011749 | 45 | 45 | 2.0 | 4.0 | 0.00 | 0.00 | 0.00 | 80 | 1024.2 |
| 20260503011240 | 45 | 45 | 0.0 | 4.0 | 0.00 | 0.00 | 0.00 | 79 | 1024.1 |
| 20260503010219 | 45 | 45 | 2.0 | 4.0 | 0.00 | 0.00 | 0.00 | 77 | 1024.0 |
| 20260503004649 | 46 | 45 | 2.0 | 4.0 | 0.00 | 0.00 | 0.00 | 76 | 1023.9 |
| 20260503004139 | 46 | 68 | 2.0 | 6.0 | 0.00 | 0.00 | 0.00 | 76 | 1023.6 |
| 20260503003628 | 46 | 45 | 2.0 | 6.0 | 0.00 | 0.00 | 0.00 | 75 | 1023.6 |
| 20260503002609 | 46 | 68 | 2.0 | 4.0 | 0.00 | 0.00 | 0.00 | 74 | 1023.8 |
| 20260503002058 | 46 | 45 | 1.0 | 4.0 | 0.00 | 0.00 | 0.00 | 74 | 1023.5 |
| 20260503001549 | 46 | 45 | 1.0 | 2.0 | 0.00 | 0.00 | 0.00 | 73 | 1023.5 |
| 20260503001038 | 46 | 68 | 1.0 | 4.0 | 0.00 | 0.00 | 0.00 | 72 | 1023.7 |
| 20260503000528 | 47 | 68 | 2.0 | 4.0 | 0.00 | 0.00 | 0.00 | 70 | 1023.5 |
| 20260503000018 | 47 | 23 | 1.0 | 2.0 | 0.00 | 0.00 | 0.00 | 69 | 1023.6 |
| 20260502235512 | 47 | 0 | 1.0 | 2.0 | 0.00 | 0.00 | 0.00 | 69 | 1023.4 |
| 20260502234957 | 47 | 0 | 1.0 | 2.0 | 0.00 | 0.00 | 0.00 | 69 | 1023.3 |
| 20260502234446 | 47 | 45 | 1.0 | 2.0 | 0.00 | 0.00 | 0.00 | 70 | 1023.5 |
| 20260502233937 | 47 | 68 | 1.0 | 2.0 | 0.00 | 0.00 | 0.00 | 69 | 1023.5 |
| 20260502233429 | 48 | 45 | 2.0 | 4.0 | 0.00 | 0.00 | 0.00 | 67 | 1023.3 |
| 20260502232918 | 49 | 68 | 2.0 | 4.0 | 0.00 | 0.00 | 0.00 | 64 | 1023.4 |
| 20260502232407 | 50 | 45 | 1.0 | 4.0 | 0.00 | 0.00 | 0.00 | 62 | 1023.5 |
| 20260502231856 | 50 | 315 | 1.0 | 4.0 | 0.00 | 0.00 | 0.00 | 62 | 1023.4 |
| 20260502230836 | 50 | 68 | 1.0 | 4.0 | 0.00 | 0.00 | 0.00 | 61 | 1023.2 |
| 20260502230331 | 50 | 68 | 1.0 | 4.0 | 0.00 | 0.00 | 0.00 | 61 | 1023.2 |
| 20260502225816 | 51 | 23 | 1.0 | 4.0 | 0.00 | 0.00 | 0.00 | 60 | 1023.2 |
| 20260502225307 | 51 | 270 | 2.0 | 4.0 | 0.00 | 0.00 | 0.00 | 60 | 1023.3 |
| 20260502224756 | 51 | 68 | 2.0 | 4.0 | 0.00 | 0.00 | 0.00 | 59 | 1023.1 |
| 20260502224246 | 51 | 338 | 1.0 | 4.0 | 0.00 | 0.00 | 0.00 | 59 | 1023.3 |
| 20260502223735 | 51 | 338 | 2.0 | 4.0 | 0.00 | 0.00 | 0.00 | 58 | 1023.2 |
| 20260502223225 | 51 | 68 | 2.0 | 6.0 | 0.00 | 0.00 | 0.00 | 60 | 1023.1 |
| 20260502222715 | 51 | 45 | 2.0 | 6.0 | 0.00 | 0.00 | 0.00 | 61 | 1023.0 |
| 20260502222205 | 51 | 45 | 2.0 | 4.0 | 0.00 | 0.00 | 0.00 | 61 | 1023.1 |
| 20260502221655 | 51 | 23 | 1.0 | 4.0 | 0.00 | 0.00 | 0.00 | 61 | 1022.9 |
| 20260502221145 | 52 | 0 | 1.0 | 4.0 | 0.00 | 0.00 | 0.00 | 60 | 1022.8 |
| 20260502220128 | 53 | 0 | 1.0 | 4.0 | 0.00 | 0.00 | 0.00 | 59 | 1022.9 |
| 20260502215614 | 53 | 270 | 2.0 | 6.0 | 0.00 | 0.00 | 0.00 | 57 | 1022.9 |
| 20260502215105 | 53 | 113 | 2.0 | 6.0 | 0.00 | 0.00 | 0.00 | 59 | 1022.8 |
| 20260502214554 | 53 | 225 | 1.0 | 4.0 | 0.00 | 0.00 | 0.00 | 60 | 1022.6 |
| 20260502214044 | 53 | 23 | 1.0 | 4.0 | 0.00 | 0.00 | 0.00 | 61 | 1022.7 |
| 20260502213533 | 53 | 45 | 1.0 | 4.0 | 0.00 | 0.00 | 0.00 | 61 | 1022.7 |
| 20260502213023 | 53 | 338 | 2.0 | 4.0 | 0.00 | 0.00 | 0.00 | 61 | 1022.4 |
| 20260502211454 | 54 | 45 | 2.0 | 7.0 | 0.00 | 0.00 | 0.00 | 57 | 1022.5 |
| 20260502210943 | 55 | 338 | 2.0 | 8.0 | 0.00 | 0.00 | 0.00 | 57 | 1022.1 |
| 20260502210432 | 55 | 0 | 2.0 | 8.0 | 0.00 | 0.00 | 0.00 | 55 | 1022.1 |
| 20260502205922 | 55 | 68 | 2.0 | 6.0 | 0.00 | 0.00 | 0.00 | 54 | 1022.2 |
| 20260502205412 | 56 | 45 | 2.0 | 6.0 | 0.00 | 0.00 | 0.00 | 53 | 1022.3 |
| 20260502204902 | 56 | 68 | 2.0 | 4.0 | 0.00 | 0.00 | 0.00 | 52 | 1022.2 |
| 20260502203332 | 58 | 135 | 2.0 | 7.0 | 0.00 | 0.00 | 0.00 | 50 | 1021.8 |
| 20260502202822 | 58 | 23 | 2.0 | 6.0 | 0.00 | 0.00 | 0.00 | 49 | 1021.9 |
| 20260502202312 | 59 | 203 | 1.0 | 7.0 | 0.00 | 0.00 | 0.00 | 48 | 1021.8 |
| 20260502201801 | 59 | 68 | 2.0 | 7.0 | 0.00 | 0.00 | 0.00 | 48 | 1021.7 |
| 20260502201251 | 59 | 90 | 2.0 | 7.0 | 0.00 | 0.00 | 0.00 | 46 | 1021.8 |
| 20260502195721 | 59 | 23 | 2.0 | 9.0 | 0.00 | 0.00 | 0.00 | 45 | 1021.5 |
| 20260502195211 | 60 | 68 | 4.0 | 9.0 | 0.00 | 0.00 | 0.00 | 46 | 1021.6 |
| 20260502194150 | 60 | 45 | 2.0 | 13.0 | 0.00 | 0.00 | 0.00 | 49 | 1021.5 |
| 20260502193130 | 61 | 315 | 3.0 | 7.0 | 0.00 | 0.00 | 0.00 | 47 | 1021.3 |
| 20260502192621 | 60 | 68 | 2.0 | 11.0 | 0.00 | 0.00 | 0.00 | 45 | 1021.2 |
| 20260502192109 | 59 | 270 | 4.0 | 11.0 | 0.00 | 0.00 | 0.00 | 46 | 1021.2 |
| 20260502190540 | 60 | 68 | 4.0 | 13.0 | 0.00 | 0.00 | 0.00 | 44 | 1021.2 |
| 20260502190029 | 62 | 68 | 3.0 | 13.0 | 0.00 | 0.00 | 0.00 | 41 | 1021.0 |
| 20260502185009 | 61 | 45 | 4.0 | 14.0 | 0.00 | 0.00 | 0.00 | 44 | 1021.0 |
| 20260502183439 | 62 | 0 | 4.0 | 9.0 | 0.00 | 0.00 | 0.00 | 45 | 1020.8 |
| 20260502182928 | 61 | 45 | 2.0 | 9.0 | 0.00 | 0.00 | 0.00 | 49 | 1020.7 |
| 20260502182419 | 61 | 0 | 2.0 | 11.0 | 0.00 | 0.00 | 0.00 | 49 | 1020.7 |
| 20260502181911 | 60 | 315 | 3.0 | 11.0 | 0.00 | 0.00 | 0.00 | 50 | 1020.6 |
| 20260502181357 | 61 | 90 | 2.0 | 7.0 | 0.00 | 0.00 | 0.00 | 50 | 1020.6 |
| 20260502180849 | 61 | 270 | 2.0 | 13.0 | 0.00 | 0.00 | 0.00 | 48 | 1020.5 |
| 20260502180337 | 60 | 90 | 2.0 | 13.0 | 0.00 | 0.00 | 0.00 | 49 | 1020.6 |
| 20260502163545 | 60 | 203 | 4.0 | 11.0 | 0.00 | 0.00 | 0.00 | 53 | 1020.1 |
| 20260502163037 | 59 | 45 | 3.0 | 15.0 | 0.00 | 0.00 | 0.00 | 53 | 1020.2 |
| 20260502162525 | 59 | 338 | 5.0 | 15.0 | 0.00 | 0.00 | 0.00 | 53 | 1020.1 |
| 20260502162014 | 59 | 68 | 4.0 | 11.0 | 0.00 | 0.00 | 0.00 | 53 | 1020.4 |
| 20260502161514 | 59 | 23 | 3.0 | 11.0 | 0.00 | 0.00 | 0.00 | 54 | 1020.2 |
| 20260502160955 | 60 | 68 | 4.0 | 11.0 | 0.00 | 0.00 | 0.00 | 52 | 1020.3 |
| 20260502160444 | 60 | 135 | 7.0 | 11.0 | 0.00 | 0.00 | 0.00 | 52 | 1020.4 |
| 20260502152323 | 58 | 23 | 3.0 | 11.0 | 0.00 | 0.00 | 0.00 | 56 | 1020.9 |
| 20260502151813 | 58 | 68 | 2.0 | 14.0 | 0.00 | 0.00 | 0.00 | 56 | 1020.8 |
| 20260502150752 | 57 | 45 | 2.0 | 11.0 | 0.00 | 0.00 | 0.00 | 57 | 1020.8 |
| 20260502150242 | 57 | 248 | 4.0 | 14.0 | 0.00 | 0.00 | 0.00 | 58 | 1020.6 |
| 20260502130350 | 53 | 315 | 5.0 | 11.0 | 0.00 | 0.00 | 0.00 | 69 | 1020.6 |
| 20260502123758 | 51 | 90 | 4.0 | 14.0 | 0.00 | 0.00 | 0.00 | 72 | 1020.2 |
| 20260502123249 | 51 | 248 | 3.0 | 14.0 | 0.00 | 0.00 | 0.00 | 74 | 1020.3 |
| 20260502122738 | 50 | 135 | 2.0 | 11.0 | 0.00 | 0.00 | 0.00 | 75 | 1020.1 |
| 20260502122228 | 50 | 45 | 5.0 | 11.0 | 0.00 | 0.00 | 0.00 | 75 | 1020.3 |
| 20260502121207 | 50 | 315 | 5.0 | 11.0 | 0.00 | 0.00 | 0.00 | 76 | 1020.1 |
| 20260502120657 | 50 | 248 | 4.0 | 11.0 | 0.00 | 0.00 | 0.00 | 76 | 1020.0 |
| 20260502120147 | 49 | 23 | 4.0 | 11.0 | 0.00 | 0.00 | 0.00 | 76 | 1019.9 |
| 20260502115637 | 49 | 0 | 3.0 | 9.0 | 0.00 | 0.00 | 0.00 | 76 | 1019.6 |
| 20260502115127 | 49 | 270 | 4.0 | 9.0 | 0.00 | 0.00 | 0.00 | 77 | 1019.5 |
| 20260502114106 | 49 | 68 | 2.0 | 9.0 | 0.00 | 0.00 | 0.00 | 77 | 1019.2 |
| 20260502113557 | 48 | 315 | 3.0 | 9.0 | 0.00 | 0.00 | 0.00 | 78 | 1019.1 |
| 20260502113046 | 48 | 338 | 4.0 | 9.0 | 0.00 | 0.00 | 0.00 | 79 | 1019.2 |
| 20260502112537 | 47 | 23 | 3.0 | 8.0 | 0.00 | 0.00 | 0.00 | 80 | 1019.0 |
| 20260502112026 | 47 | 68 | 2.0 | 7.0 | 0.00 | 0.00 | 0.00 | 81 | 1018.9 |
| 20260502111515 | 46 | 338 | 2.0 | 11.0 | 0.00 | 0.00 | 0.00 | 82 | 1018.8 |
| 20260502110455 | 46 | 68 | 3.0 | 11.0 | 0.00 | 0.00 | 0.00 | 83 | 1018.8 |
| 20260502105946 | 46 | 113 | 2.0 | 8.0 | 0.00 | 0.00 | 0.00 | 84 | 1018.6 |
| 20260502104925 | 46 | 90 | 2.0 | 9.0 | 0.00 | 0.00 | 0.00 | 85 | 1018.4 |
| 20260502104416 | 46 | 113 | 2.0 | 6.0 | 0.00 | 0.00 | 0.00 | 85 | 1018.2 |
| 20260502103904 | 46 | 248 | 2.0 | 7.0 | 0.00 | 0.00 | 0.00 | 85 | 1018.5 |
| 20260502103354 | 46 | 45 | 2.0 | 7.0 | 0.00 | 0.00 | 0.00 | 85 | 1018.1 |
| 20260502102844 | 46 | 68 | 1.0 | 7.0 | 0.00 | 0.00 | 0.00 | 85 | 1018.0 |
| 20260502102335 | 46 | 180 | 1.0 | 7.0 | 0.00 | 0.00 | 0.00 | 85 | 1017.9 |
| 20260502101824 | 46 | 90 | 2.0 | 7.0 | 0.00 | 0.00 | 0.00 | 85 | 1017.8 |
| 20260502100804 | 46 | 23 | 2.0 | 7.0 | 0.00 | 0.00 | 0.00 | 84 | 1017.9 |
| 20260502100255 | 47 | 135 | 2.0 | 7.0 | 0.00 | 0.00 | 0.00 | 84 | 1017.8 |
| 20260502090602 | 47 | 45 | 2.0 | 6.0 | 0.00 | 0.00 | 0.00 | 84 | 1016.9 |
| 20260502071223 | 51 | 135 | 2.0 | 4.0 | 0.00 | 0.00 | 0.00 | 77 | 1015.8 |
| 20260502070222 | 51 | 68 | 1.0 | 6.0 | 0.00 | 0.00 | 0.00 | 77 | 1015.5 |
| 20260502065711 | 51 | 270 | 2.0 | 6.0 | 0.00 | 0.00 | 0.00 | 77 | 1015.4 |
| 20260502065201 | 51 | 68 | 2.0 | 6.0 | 0.00 | 0.00 | 0.00 | 77 | 1015.5 |
| 20260502064650 | 51 | 90 | 2.0 | 6.0 | 0.00 | 0.00 | 0.00 | 76 | 1015.5 |
| 20260502064141 | 51 | 68 | 2.0 | 4.0 | 0.00 | 0.00 | 0.00 | 76 | 1015.4 |
| 20260502063630 | 52 | 23 | 2.0 | 8.0 | 0.00 | 0.00 | 0.00 | 77 | 1015.4 |
| 20260502063120 | 52 | 45 | 2.0 | 8.0 | 0.00 | 0.00 | 0.00 | 76 | 1015.2 |
| 20260502062610 | 52 | 23 | 2.0 | 6.0 | 0.00 | 0.00 | 0.00 | 76 | 1015.3 |
| 20260502062100 | 52 | 23 | 2.0 | 6.0 | 0.00 | 0.00 | 0.00 | 76 | 1015.1 |
| 20260502061550 | 52 | 338 | 3.0 | 9.0 | 0.00 | 0.00 | 0.00 | 76 | 1015.3 |
| 20260502061040 | 53 | 0 | 2.0 | 9.0 | 0.00 | 0.00 | 0.00 | 76 | 1015.4 |
| 20260502060538 | 53 | 45 | 2.0 | 7.0 | 0.00 | 0.00 | 0.00 | 75 | 1015.3 |
| 20260502060019 | 53 | 23 | 2.0 | 7.0 | 0.00 | 0.00 | 0.00 | 75 | 1015.4 |
| 20260502055509 | 53 | 68 | 3.0 | 7.0 | 0.00 | 0.00 | 0.00 | 75 | 1015.4 |
| 20260502055000 | 53 | 293 | 2.0 | 4.0 | 0.00 | 0.00 | 0.00 | 74 | 1015.5 |
| 20260502054448 | 54 | 45 | 1.0 | 6.0 | 0.00 | 0.00 | 0.00 | 74 | 1015.2 |
| 20260502053938 | 54 | 45 | 2.0 | 6.0 | 0.00 | 0.00 | 0.00 | 73 | 1015.1 |
| 20260502053429 | 54 | 68 | 2.0 | 0.0 | 0.00 | 0.00 | 0.00 | 73 | 1015.2 |
| 20260502052848 | 55 | 113 | 2.0 | 6.0 | 0.00 | 0.00 | 0.00 | 72 | 1015.0 |
| 20260502052337 | 55 | 0 | 2.0 | 4.0 | 0.00 | 0.00 | 0.00 | 72 | 1015.0 |
| 20260502051828 | 55 | 90 | 2.0 | 6.0 | 0.00 | 0.00 | 0.00 | 72 | 1014.9 |
| 20260502051317 | 55 | 0 | 2.0 | 6.0 | 0.00 | 0.00 | 0.00 | 72 | 1014.8 |
| 20260502050807 | 55 | 203 | 2.0 | 6.0 | 0.00 | 0.00 | 0.00 | 73 | 1014.6 |
| 20260502050302 | 55 | 68 | 2.0 | 8.0 | 0.00 | 0.00 | 0.00 | 73 | 1014.8 |
| 20260502045746 | 56 | 45 | 2.0 | 8.0 | 0.00 | 0.00 | 0.00 | 74 | 1014.7 |
| 20260502045236 | 56 | 158 | 2.0 | 6.0 | 0.00 | 0.00 | 0.00 | 74 | 1014.6 |
| 20260502044726 | 56 | 135 | 2.0 | 4.0 | 0.00 | 0.00 | 0.00 | 74 | 1014.9 |
| 20260502043707 | 56 | 180 | 2.0 | 4.0 | 0.00 | 0.00 | 0.00 | 73 | 1014.3 |
| 20260502042647 | 57 | 23 | 2.0 | 6.0 | 0.00 | 0.00 | 0.00 | 74 | 1014.4 |
| 20260502042136 | 57 | 23 | 2.0 | 6.0 | 0.00 | 0.00 | 0.00 | 75 | 1014.0 |
| 20260502041627 | 57 | 113 | 2.0 | 6.0 | 0.00 | 0.00 | 0.00 | 75 | 1014.3 |